Погода в Майсуре

Индия     12°11′25″N   76°52′40″E
темп.,
°C
ветер,
м/с
пор.,
м/с
влажн.,
%
обл.,
%
осадки,
мм/ч
давл.,
гПа
погр.,
м
15 августа, пн
пн1523:30+23з4981100 0.0 1011460
02:30+21з3886100 0.0 1009409
05:30+21зюз2687100 0.0 1011266
08:30+24з4669100 0.0 1012664
11:30+28з5553100 0.0 10121328
14:30+31з4544100 0.0 10082017
17:30+28зсз5854100 0.0 1008464
20:30+25зсз4868100 0.0 1011293
16 августа, вт
вт1623:30+23зюз2376100 0.0 101294
02:30+22зюз2279100 0.0 101058
05:30+21юз2281100 0.0 101135
08:30+24юз1166100 0.0 1012390
11:30+29зсз3343100 0.0 10111175
14:30+31зсз3336100 0.0 10071856
17:30+30зсз333975 0.0 10071803
20:30+26з36567 0.0 1009124
17 августа, ср
ср1723:30+24з11755 0.0 101112
02:30+23з11795 0.0 101021
05:30+22зсз22825 0.0 101037
08:30+25сз226137 0.0 1012530
11:30+30ссз224598 0.0 10101438
14:30+32сз3237100 0.0 10072299
17:30+30зсз1244100 0.0 100651
20:30+26зсз496181 0.0 1009400
18 августа, чт
чт1823:30+25з366999 0.0 1010303
02:30+24з357465 0.0 1009297
05:30+24з247370 0.1 1009364
08:30+25сз236783 0.0 1012644
11:30+28с3353100 0.0 10101273
14:30+31ссз2342100 0.2 10072236
17:30+29сз3553100 0.4 1007229
20:30+27з3760100 0.0 1009416
19 августа, пт
пт1923:30+25зсз376974 0.2 1010415
02:30+23з3676100 0.0 1009309
05:30+22зюз2278100 0.0 101028
08:30+25зсз356171 0.0 1011656
11:30+30сз454574 0.0 10091553
14:30+32зсз5638100 0.0 10062543
17:30+29сз4851100 0.0 1006348
20:30+27зсз5760100 0.0 1009519